This is the latest recevied weather packets stored in our database for station/object IU1WWE-10. If no packets are shown the sender has not sent any weather packets the latest 10 day(s).
| Time | Temp. | Humidity | Pressure | Rain* | Wind** | Luminosity | Snow |
|---|---|---|---|---|---|---|---|
| 1787767197 | 20° C | 75% | 1017.9 hPa | 0 mm | - | - | - |
| 1787766895 | 20° C | 76% | 1018.1 hPa | 0 mm | - | - | - |
| 1787766592 | 20.56° C | 75% | 1018.1 hPa | 0 mm | - | - | - |
| 1787766285 | 20.56° C | 73% | 1017.9 hPa | 0 mm | - | - | - |
| 1787765983 | 20.56° C | 77% | 1017.7 hPa | 0 mm | - | - | - |
| 1787765681 | 20.56° C | 72% | 1017.7 hPa | 0 mm | - | - | - |
| 1787765379 | 20.56° C | 73% | 1018 hPa | 0 mm | - | - | - |
| 1787765077 | 20.56° C | 72% | 1017.9 hPa | 0 mm | - | - | - |
| 1787764775 | 20.56° C | 73% | 1017.8 hPa | 0 mm | - | - | - |
| 1787764473 | 20.56° C | 74% | 1017.8 hPa | 0 mm | - | - | - |
| 1787764171 | 20.56° C | 74% | 1017.9 hPa | 0 mm | - | - | - |
| 1787763863 | 20.56° C | 74% | 1017.7 hPa | 0 mm | - | - | - |
| 1787763561 | 20.56° C | 73% | 1017.8 hPa | 0 mm | - | - | - |
| 1787763259 | 20.56° C | 74% | 1017.7 hPa | 0 mm | - | - | - |
| 1787762957 | 20.56° C | 74% | 1017.7 hPa | 0 mm | - | - | - |
| 1787762655 | 20.56° C | 75% | 1017.6 hPa | 0 mm | - | - | - |
| 1787762353 | 20.56° C | 74% | 1017.4 hPa | 0 mm | - | - | - |
| 1787762051 | 21.11° C | 74% | 1017.6 hPa | 0 mm | - | - | - |
| 1787761749 | 21.11° C | 74% | 1017.5 hPa | 0 mm | - | - | - |
| 1787761447 | 21.11° C | 74% | 1017.5 hPa | 0 mm | - | - | - |
| 1787761145 | 21.11° C | 74% | 1017.5 hPa | 0 mm | - | - | - |
| 1787760843 | 21.11° C | 74% | 1017.5 hPa | 0 mm | - | - | - |
| 1787760541 | 21.11° C | 73% | 1017.6 hPa | 0 mm | - | - | - |
| 1787760239 | 21.11° C | 73% | 1017.6 hPa | 0 mm | - | - | - |
| 1787759936 | 21.11° C | 73% | 1017.6 hPa | 0 mm | - | - | - |
* Rain since midnight (hover to see other rain measurements)
** Current wind speed in m/s (hover to see current wind gust speed)